Date String (YYYY-MM-DD hh:mm:ss) UTC,Instrument flags,Ambient pressure (hPa),Sample flow (lpm),Bypass flow (lpm),Sample temperature (°C),Ambient temperature (°C),ASC tube jacket temperature (°C),LED temperature (°C),Box temperature (°C),Sample RH (%),Span deviation,Mass concentration (μg/m³),Mass concentration (μg/m³),Mass concentration (μg/m³)
DateTimeUTC,F1_M11,P_M11,Q1_M11,Q2_M11,T1_M11,T2_M11,T3_M11,T4_M11,T5_M11,U1_M11,ZSPAN_M11,X0_M11,X2_M11,X1_M11
2021-08-20 17:00:00,,0825.1,5.00,0.00,29.9,29.1,00.0,39.0,31.7,16.0,0002.3,0019.19,0014.10,0013.63
2021-08-20 17:01:00,,0825.1,5.01,0.00,30.0,29.1,00.0,39.0,31.8,14.3,0002.1,0019.24,0014.08,0013.60
2021-08-20 17:02:00,,0825.1,4.99,0.00,30.0,28.9,00.0,39.0,31.7,14.1,0002.0,0019.56,0014.07,0013.55
2021-08-20 17:03:00,,0825.1,5.01,0.00,29.9,27.4,00.0,39.0,31.3,14.1,0001.9,0020.17,0014.03,0013.48
2021-08-20 17:04:00,,0825.0,5.00,0.00,29.8,26.5,00.0,39.0,31.1,14.5,0002.0,0020.01,0013.93,0013.41
2021-08-20 17:05:00,,0824.9,5.00,0.00,29.7,26.7,00.0,38.9,31.2,14.7,0002.2,0019.78,0013.90,0013.37
2021-08-20 17:06:00,,0825.0,4.99,0.00,29.6,27.0,00.0,38.9,31.2,14.6,0002.3,0019.49,0013.86,0013.32
2021-08-20 17:07:00,,0825.0,5.01,0.00,29.6,27.4,00.0,38.9,31.2,14.4,0002.3,0019.44,0013.83,0013.29
2021-08-20 17:08:00,,0824.9,5.00,0.00,29.6,27.6,00.0,38.8,31.2,14.7,0002.4,0019.31,0013.77,0013.25
2021-08-20 17:09:00,,0824.9,5.00,0.00,29.6,27.8,00.0,38.8,31.3,15.1,0002.6,0019.23,0013.72,0013.18
2021-08-20 17:10:00,,0824.8,4.98,0.00,29.6,28.0,00.0,38.8,31.2,15.7,0002.9,0019.31,0013.67,0013.13
2021-08-20 17:11:00,,0824.8,5.01,0.00,29.6,28.2,00.0,38.8,31.2,15.1,0003.0,0019.50,0013.64,0013.06
2021-08-20 17:12:00,,0824.8,5.00,0.00,29.6,28.3,00.0,38.8,31.2,15.6,0003.3,0019.49,0013.64,0013.07
2021-08-20 17:13:00,,0824.9,4.99,0.00,29.6,28.3,00.0,38.8,31.3,15.7,0003.3,0019.36,0013.65,0013.08
2021-08-20 17:14:00,,0824.9,5.01,0.00,29.6,28.4,00.0,38.8,31.3,15.9,0003.4,0018.79,0013.67,0013.10
2021-08-20 17:15:00,,0825.1,5.01,0.00,29.6,28.5,00.0,38.8,31.3,15.1,0003.3,0018.94,0013.75,0013.13
2021-08-20 17:16:00,,0825.0,4.99,0.00,29.6,28.5,00.0,38.8,31.3,15.5,0003.2,0019.06,0013.78,0013.11
2021-08-20 17:17:00,,0824.9,5.00,0.00,29.6,28.6,00.0,38.8,31.3,15.4,0002.9,0019.18,0013.78,0013.10
2021-08-20 17:18:00,,0824.8,5.02,0.00,29.6,28.6,00.0,38.8,31.3,15.7,0002.9,0019.25,0013.79,0013.09
2021-08-20 17:19:00,,0824.9,5.01,0.00,29.6,28.6,00.0,38.8,31.3,15.7,0002.9,0019.44,0013.86,0013.09
2021-08-20 17:20:00,,0824.8,5.01,0.00,29.6,28.7,00.0,38.8,31.3,15.2,0002.6,0019.73,0013.88,0013.07
2021-08-20 17:21:00,,0824.9,4.99,0.00,29.7,28.7,00.0,38.8,31.3,15.0,0002.4,0019.71,0013.88,0013.04
2021-08-20 17:22:00,,0824.9,5.00,0.00,29.7,28.8,00.0,38.8,31.3,15.4,0002.3,0019.58,0013.82,0012.99
2021-08-20 17:23:00,,0824.9,5.01,0.00,29.7,28.8,00.0,38.8,31.3,15.0,0001.9,0019.71,0013.76,0012.94
2021-08-20 17:24:00,,0824.9,4.99,0.00,29.7,28.8,00.0,38.8,31.3,15.6,0001.8,0019.61,0013.72,0012.90
2021-08-20 17:25:00,,0824.9,5.01,0.00,29.7,28.9,00.0,38.8,31.4,14.9,0001.7,0019.42,0013.63,0012.85
2021-08-20 17:26:00,,0824.9,5.00,0.00,29.7,28.9,00.0,38.9,31.4,15.2,0001.7,0019.22,0013.52,0012.79
2021-08-20 17:27:00,,0824.9,4.99,0.00,29.7,28.9,00.0,38.9,31.4,15.3,0001.6,0018.98,0013.39,0012.72
2021-08-20 17:28:00,,0824.8,5.01,0.00,29.7,28.9,00.0,38.9,31.4,15.3,0001.6,0018.82,0013.32,0012.67
2021-08-20 17:29:00,,0824.9,4.99,0.00,29.8,28.9,00.0,38.9,31.5,15.6,0001.6,0018.83,0013.28,0012.62
2021-08-20 17:30:00,,0824.9,5.01,0.00,29.8,28.2,00.0,38.9,31.3,14.7,0001.6,0019.21,0013.17,0012.55
2021-08-20 17:31:00,,0824.9,4.99,0.00,29.6,26.3,00.0,38.9,30.9,14.5,0001.8,0018.87,0013.07,0012.49
2021-08-20 17:32:00,,0824.8,5.00,0.00,29.5,26.0,00.0,38.8,30.8,14.5,0001.9,0018.67,0012.99,0012.45
2021-08-20 17:33:00,,0824.8,5.01,0.00,29.4,26.4,00.0,38.8,30.8,15.2,0001.8,0018.05,0012.93,0012.43
2021-08-20 17:34:00,,0824.8,5.00,0.00,29.4,26.8,00.0,38.7,30.9,15.2,0002.0,0017.76,0012.93,0012.42
2021-08-20 17:35:00,,0824.8,4.99,0.00,29.4,27.1,00.0,38.7,31.0,16.2,0002.0,0017.69,0012.93,0012.42
2021-08-20 17:36:00,,0824.9,5.01,0.00,29.4,27.4,00.0,38.7,31.0,16.6,0002.2,0017.57,0012.90,0012.41
2021-08-20 17:37:00,,0824.9,5.00,0.00,29.4,27.7,00.0,38.6,31.1,15.8,0002.1,0017.57,0012.89,0012.38
2021-08-20 17:38:00,,0824.9,4.99,0.00,29.4,27.9,00.0,38.6,31.2,15.5,0002.2,0017.64,0012.89,0012.36
2021-08-20 17:39:00,,0824.9,5.00,0.00,29.5,28.1,00.0,38.6,31.2,15.2,0002.3,0018.08,0012.88,0012.35
2021-08-20 17:40:00,,0824.9,5.01,0.00,29.5,28.2,00.0,38.6,31.3,15.3,0002.3,0017.86,0012.83,0012.31
2021-08-20 17:41:00,,0824.9,5.00,0.00,29.5,28.3,00.0,38.6,31.3,15.1,0002.4,0017.86,0012.80,0012.31
2021-08-20 17:42:00,,0824.9,5.00,0.00,29.5,28.4,00.0,38.6,31.3,15.9,0002.4,0018.92,0012.84,0012.32
2021-08-20 17:43:00,,0825.0,5.02,0.00,29.6,28.5,00.0,38.7,31.4,15.2,0002.2,0019.36,0012.84,0012.32
2021-08-20 17:44:00,,0824.9,5.01,0.00,29.6,28.6,00.0,38.7,31.4,15.1,0002.2,0019.36,0012.82,0012.30
2021-08-20 17:45:00,,0824.9,4.99,0.00,29.6,28.6,00.0,38.7,31.4,14.2,0002.3,0019.33,0012.76,0012.24
2021-08-20 17:46:00,,0824.9,5.01,0.00,29.7,28.7,00.0,38.7,31.4,14.5,0002.2,0019.28,0012.68,0012.15
2021-08-20 17:47:00,,0824.9,4.99,0.00,29.7,28.7,00.0,38.7,31.4,14.7,0002.1,0019.25,0012.62,0012.08
2021-08-20 17:48:00,,0824.9,5.01,0.00,29.7,28.8,00.0,38.7,31.4,13.8,0002.4,0019.66,0012.58,0012.03
2021-08-20 17:49:00,,0824.9,5.00,0.00,29.7,28.8,00.0,38.7,31.5,14.5,0002.4,0019.96,0012.56,0012.00
2021-08-20 17:50:00,,0824.8,5.00,0.00,29.7,28.8,00.0,38.8,31.5,15.5,0002.5,0019.45,0012.48,0011.94
2021-08-20 17:51:00,,0824.8,5.00,0.00,29.7,28.8,00.0,38.8,31.5,14.5,0002.4,0019.52,0012.48,0011.91
2021-08-20 17:52:00,,0824.8,5.00,0.00,29.8,28.8,00.0,38.8,31.5,14.6,0002.3,0018.93,0012.45,0011.85
2021-08-20 17:53:00,,0824.9,4.99,0.00,29.7,27.9,00.0,38.8,31.3,15.0,0002.4,0018.09,0012.38,0011.81
2021-08-20 17:54:00,,0824.9,5.00,0.00,29.6,26.2,00.0,38.8,30.9,14.9,0002.5,0017.73,0012.41,0011.81
2021-08-20 17:55:00,,0824.9,5.00,0.00,29.5,26.0,00.0,38.7,30.8,15.2,0002.6,0017.77,0012.43,0011.82
2021-08-20 17:56:00,,0824.9,5.01,0.00,29.4,26.4,00.0,38.7,30.9,15.3,0002.5,0017.81,0012.46,0011.84
2021-08-20 17:57:00,,0824.9,5.00,0.00,29.4,26.8,00.0,38.6,30.9,14.9,0002.5,0017.92,0012.48,0011.86
2021-08-20 17:58:00,,0824.9,4.99,0.00,29.4,27.1,00.0,38.6,30.9,15.3,0002.5,0017.90,0012.51,0011.91
2021-08-20 17:59:00,,0824.8,5.01,0.00,29.4,27.4,00.0,38.6,31.0,15.0,0002.4,0017.65,0012.58,0011.98
